Regional Weather Roundup
Issued by NWS

Home | Current Version | Previous Version | Graphics & Text | Print | Product List | Glossary On
Versions: 1 2 3 4 5 6 7 8 9 10 11 12 13 14 15 16 17 18 19 20 21 22 23 24 25 26 27 28 29 30 31 32 33 34 35 36 37 38 39 40 41 42 43 44 45 46 47 48 49 50
000
ASUS45 KBOU 030010
RWRCO

WEATHER ROUNDUP FOR COLORADO
NATIONAL WEATHER SERVICE DENVER/BOULDER CO
600 PM MDT THU JUL 02 2015

NOTE: "FAIR" INDICATES FEW OR NO CLOUDS BELOW 12000 FEET WITH NO
SIGNIFICANT WEATHER AND/OR OBSTRUCTIONS TO VISIBILITY.

COZ001>005-013-030-031-030100-
...NORTHWEST COLORADO...

CITY           SKY/WX    TMP DP  RH WIND       PRES   REMARKS
CRAIG          SUNNY     89  38  16 NE6       30.12F
HAYDEN         MOSUNNY   86  37  17 NE9       30.15F
MEEKER         SUNNY     89  39  17 NE10      30.13F
MOUNT WERNER   NOT AVBL
STEAMBOAT SPGS SUNNY     85  39  19 W14       30.17F
WALDEN         PTSUNNY   73  39  29 NE14G25   30.31S
$$

COZ006>008-011-030100-
...WEST CENTRAL VALLEYS...

CITY           SKY/WX    TMP DP  RH WIND       PRES   REMARKS
GRAND JUNCTION PTSUNNY   94  46  19 W8        29.97F
MONTROSE       PTSUNNY   90  46  21 NW5       30.07F
EAGLE          MOSUNNY   84  46  26 SE13      30.14F
RIFLE          MOSUNNY   94  39  14 N9G22     30.03F
DELTA          PTSUNNY   96  46  18 N6        30.00F
NUCLA          PTSUNNY   88  39  18 N7        30.11F
$$

COZ017>023-064>068-030100-
...SOUTHWEST COLORADO...

CITY           SKY/WX    TMP DP  RH WIND       PRES   REMARKS
DURANGO        CLOUDY    74  50  42 N6        30.17S
CORTEZ         SUNNY     80  54  40 E14       30.09R
PAGOSA SPRINGS CLOUDY    73  52  47 CALM      30.28R
TELLURIDE      CLOUDY    72  46  39 CALM      30.40R
WOLF CREEK PAS NOT AVBL
$$

COZ009-010-012-014-032>034-037-058>063-030100-
...CENTRAL COLORADO...

CITY           SKY/WX    TMP DP  RH WIND       PRES   REMARKS
ASPEN          PTSUNNY   77  47  34 S9        30.25F
BUENA VISTA    LGT RAIN  63  57  80 SE15      30.36F
COPPER MTN     CLOUDY    64  36  34 W13G20    30.62F
BERTHOUD PASS  CLOUDY    45  34  65 E18G25    30.68S
COTTONWOOD PAS NOT AVBL
GUNNISON       CLOUDY    73  48  40 E17G23    30.27F
KREMMLING      MOSUNNY   82  27  13 NW3       30.22F
LEADVILLE      LGT RAIN  59  46  62 S10       30.45R
MONARCH PASS   FOG       46  45  93 NE26      30.72S VSB<1/4
SALIDA         CLOUDY    65  57  76 E6        30.42F
SUNLIGHT       MOSUNNY   70  36  28 NW3       30.54F
WILKERSON PASS CLOUDY    48  45  87 NE7       30.62R
$$

COZ069>075-030100-
...SAN LUIS VALLEY/SANGRE DE CRISTO MOUNTAINS...

CITY           SKY/WX    TMP DP  RH WIND       PRES   REMARKS
ALAMOSA        TSTM      68  49  50 NE18G30   30.25F
LA VETA PASS   LGT RAIN  52  50  93 SE6       30.52F
SAGUACHE       CLOUDY    66  50  55 E17G25    30.32R
$$

COZ035-036-038>040-030100-
...NORTHERN COLORADO FRONT RANGE...

CITY           SKY/WX    TMP DP  RH WIND       PRES   REMARKS
DENVER INTL AP MOSUNNY   80  50  34 SE7       30.14F
DMNS CITY PARK   N/A     83  48  30 S3        30.13F
AURORA         PTSUNNY   79  50  35 E8        30.18S
FRONT RANGE AP PTSUNNY   81  54  39 MISG      30.17F
ERIE MUNI ARPT MOSUNNY   83  49  30 SW9       30.12F
BOULDER MUN AP MOSUNNY   81  48  32 SE3       30.14S
CENTENNIAL     PTSUNNY   79  49  34 VRB3      30.18F
BROOMFIELD     PTSUNNY   81  50  34 S6        30.17F
FORT COLLINS   MOSUNNY   82  52  34 SE3       30.11S
LONGMONT       MOSUNNY   86  50  28 S8        30.13F
$$

COZ041-046-047-076>085-087-088-030100-
...PIKES PEAK/PALMER DIVIDE AND SOUTHERN FOOTHILLS...

CITY           SKY/WX    TMP DP  RH WIND       PRES   REMARKS
COLO. SPRINGS  LGT RAIN  72  57  59 S12       30.24F
A. F. ACADEMY  PTSUNNY   72  56  56 S14       30.24F
ELLICOTT       CLOUDY   N/A N/A N/A SW10      30.23S
FALCON         CLOUDY    74  56  52 S12G17    30.30S
FORT CARSON    CLOUDY    73  58  59 SW8       30.22F
LIMON          SUNNY     79  50  36 CALM      30.17S
MONUMENT HILL  NOT AVBL
TRINIDAD       CLOUDY    75  57  53 NE6       30.21F
$$

COZ042>045-048>051-090-091-030100-
...NORTHEAST COLORADO...

CITY           SKY/WX    TMP DP  RH WIND       PRES   REMARKS
GREELEY ARPT   MOSUNNY   81  54  39 CALM      30.12S
AKRON          SUNNY     81  54  39 NE8       30.11F
BURLINGTON     MOSUNNY   85  52  32 NE12      30.08F
WRAY           MOSUNNY   84  54  34 N13G21    30.06S
STERLING       SUNNY     82  55  39 NE8         N/A
HOLYOKE        SUNNY     84  50  30 N10G16    30.06F
FORT MORGAN    MOSUNNY   79  52  38 E8        30.12S
$$

COZ086-089-092>099-030100-
...SOUTHEAST COLORADO...

CITY           SKY/WX    TMP DP  RH WIND       PRES   REMARKS
PUEBLO         CLOUDY    80  57  45 W9        30.14F
LA JUNTA       PTSUNNY   83  58  42 W5        30.09F
LAMAR          MOSUNNY   86  55  34 N3        30.03F
SPRINGFIELD      N/A     86  54  33 N14       30.06F
$$



USA.gov is the U.S. government's official web portal to all federal, state and local government web resources and services.